Location: Basse Occidentale du Courleau
(48.3833°N, 4.8333°W)
Time: 04:27:20
(UTC+00:00)

SPOT 5 - Pass Details

Date: 05 July 2020
Orbit: 622 x 815 km, 98.3° (Epoch: 11 August)

Event Time Altitude Azimuth Distance (km) Brightness Sun altitude
Exits shadow 21:13:53 - 138° (SE) 2,390 4.9 -7.2°
Reaches altitude 10° 21:14:10 10° 137° (SE) 2,286 4.8 -7.2°
Maximum altitude 21:18:52 42° 68° (ENE) 1,046 3.6 -7.8°
Drops below altitude 10° 21:23:22 10° 359° (N) 2,185 6.2 -8.3°
Sets 21:25:40 0° 352° (N) 3,076 7.2 -8.5°
